Regional Weather Roundup
Issued by NWS

Home | Current Version | Previous Version | Text Only | Print | Product List | Glossary Off
Versions: 1 2 3 4 5 6 7 8 9 10 11 12 13 14 15 16 17 18 19 20 21 22 23 24 25 26 27 28 29 30 31 32 33 34 35 36 37 38 39 40 41 42 43 44 45 46 47 48 49 50

000
ASUS43 KBIS 190210
RWRND

NORTH DAKOTA REGIONAL WEATHER ROUNDUP
NATIONAL WEATHER SERVICE BISMARCK ND
900 PM CDT FRI AUG 18 2017

NOTE: "FAIR" INDICATES FEW OR NO CLOUDS BELOW 12,000 FEET WITH NO
SIGNIFICANT WEATHER AND/OR OBSTRUCTIONS TO VISIBILITY.


NDZ001>003-009>011-017-190300-
NORTHWEST NORTH DAKOTA

CITY           SKY/WX    TMP DP  RH WIND       PRES   REMARKS
WILLISTON      CLEAR     74  54  49 SE3       29.85F
MINOT          CLEAR     75  51  43 CALM      29.85F
MINOT AFB        N/A     70  52  53 S5        29.84F
$$

NDZ018>021-031>035-040>046-190300-
SOUTHWEST NORTH DAKOTA

CITY           SKY/WX    TMP DP  RH WIND       PRES   REMARKS
BISMARCK       CLEAR     67  60  78 S6        29.91S
DICKINSON      CLEAR     69  53  56 E9        29.89F
GARRISON         N/A     71  55  56 CALM      29.88S
HETTINGER ARPT CLEAR     71  51  49 E7        29.93F
$$

NDZ004>008-012>016-024-026-027-054-190300-
NORTHEAST NORTH DAKOTA

CITY           SKY/WX    TMP DP  RH WIND       PRES   REMARKS
GRAND FORKS    PTCLDY    70  62  76 SW7       29.83S
GRND FRKS AFB  CLEAR     66  60  81 W6        29.85S
DEVILS LAKE    CLEAR     74  57  55 SW3       29.88S
$$

NDZ022-023-025-028>030-036>039-047>053-190300-
SOUTHEAST NORTH DAKOTA

CITY           SKY/WX    TMP DP  RH WIND       PRES   REMARKS
FARGO          CLEAR     67  60  78 S7        29.87S
JAMESTOWN      CLEAR     67  60  78 CALM      29.90S
$$





USA.gov is the U.S. government's official web portal to all federal, state and local government web resources and services.